Volver al catálogo

PRAETORIAN SDA_615

ActivoMilitarPO
NORAD 65578·PAYLOAD·🇺🇸 United States

Lanzado Sep 10, 2025 desde Vandenberg Space Force Base

Loading…

Próximos Pases (próximas 24 horas)

TLE

ActualizadoSource: Space-Track

Época: Sep 14, 2026, 13:20 UTC

1 65578U 25203P   26257.55575534  .00000116  00000-0  92845-4 0  9994
2 65578  81.2995 287.7595 0008107 313.2701  46.7779 13.84442276 51077

Sigue PRAETORIAN SDA_615 en tiempo real con AllMySat

Download on the App Store